Location: S�deilles
(46.7500°N, 6.9329°E)
Time: 05:03:08
(UTC+00:00)

SL-8 Rocket - Pass Details

Date: 08 March 2021
Orbit: 957 x 990 km, 82.9° (Epoch: 22 April)

Event Time Altitude Azimuth Distance (km) Brightness Sun altitude
Rises 18:24:48 0° 178° (S) 3,661 6.9 -10.5°
Reaches altitude 10° 18:27:19 10° 176° (S) 2,713 6.2 -10.9°
Maximum altitude 18:33:29 69° 94° (E) 1,033 3.9 -12.0°
Drops below altitude 10° 18:39:38 10° 13° (NNE) 2,710 6.3 -13.0°
Sets 18:42:08 0° 11° (N) 3,657 7.0 -13.5°
